Hourly Weather Roundup
Issued by NWS Central Illinois

Home | Current Version | Previous Version | Text Only | Print | Product List | Glossary On
Versions: 1 2 3 4 5 6 7 8 9 10 11 12 13 14 15 16 17 18 19 20 21 22 23 24 25 26 27 28 29 30 31 32 33 34 35 36 37 38 39 40 41 42 43 44 45 46 47 48 49 50
000
NZUS43 KILX 280110
HWRILX

Area Weather Roundup
National Weather Service Lincoln IL
800 PM CDT SAT MAY 27 2017

NOTE:  "FAIR" indicates few or no clouds below 12,000 feet, with
       no sigificant weather and/or obstructions to visibility.


CITY           SKY/WX    TMP DP  RH WIND       PRES   REMARKS
Bloomington    CLOUDY    71  61  70 SE10      29.79F
Champaign      CLOUDY    71  64  78 SE7       29.83F
Danville       CLOUDY    69  64  84 SE5       29.81S
Decatur        CLOUDY    74  64  71 E13       29.77F
Effingham      CLOUDY    71  64  78 W6        29.84F
Flora          RAIN      72  62  70 W9        29.85F
Galesburg      CLOUDY    69  64  85 N6        29.78F
Jacksonville   CLOUDY    69  62  79 CALM      29.75R
Lacon          MOCLDY    72  65  77 NE3       29.76F
Lawrenceville  CLOUDY    76  68  76 CALM      29.84R
Litchfield     CLOUDY    64  61  88 SE10G23   29.66F
$$


CITY           SKY/WX    TMP DP  RH WIND       PRES   REMARKS
Lincoln        CLOUDY    76  64  66 E13       29.73F
Macomb         CLOUDY    70  65  86 NE6       29.79F
Mattoon        CLOUDY    72  68  87 E3        29.82S
Mt Carmel AP   CLOUDY    73  65  76 SW9       29.85S
Olney-Noble AP CLOUDY    74  71  88 SW9       29.86S
Paris AP       CLOUDY    70  66  87 E5        29.84F
Peoria         MOCLDY    73  63  70 E8        29.76F
Pontiac        CLOUDY    74  68  79 E7        29.79F
Rantoul        CLOUDY    72  66  81 SE5       29.82F
Robinson       CLOUDY    73  66  78 CALM      29.84S
Springfield    CLOUDY    75  63  66 SE8       29.71F
Taylorville    CLOUDY    68  61  76 SE17G23   29.67F
$$

...REGIONAL REPORTS...


CITY           SKY/WX    TMP DP  RH WIND       PRES   REMARKS
Chicago O`Hare CLOUDY    70  53  54 E7        29.84F
Kankakee       CLOUDY    72  61  69 CALM      29.82F
Moline         CLOUDY    72  62  71 NE7       29.80F
Mount Sterling CLOUDY    71  64  80 CALM      29.77R
Mount Vernon   LGT RAIN  67  61  81 SW8       29.84F
Pittsfield     CLOUDY    71  65  82 W9        29.79R
Quincy         CLOUDY    71  64  78 W5        29.78R
Rockford       CLOUDY    74  62  66 CALM      29.85F
$$


CITY           SKY/WX    TMP DP  RH WIND       PRES   REMARKS
Burlington     CLOUDY    70  66  87 N7        29.79S
Cedar Rapids   CLOUDY    62  62 100 N10       29.83F
Des Moines     MOCLDY    65  56  72 NE7       29.86F
Kirksville     MOCLDY    73  64  73 NE3       29.79F
Ottumwa        CLOUDY    64  61  90 N13       29.83S
St Louis       CLOUDY    69  60  73 SW8       29.74R
$$


CITY           SKY/WX    TMP DP  RH WIND       PRES   REMARKS
Terre Haute    MOCLDY    72  64  76 NE6       29.83F
Evansville     CLOUDY    75  60  59 W15       29.90R
Indianapolis   CLOUDY    73  63  70 N8        29.85R
Lafayette      CLEAR     67  62  84 CALM      29.84F
Madison        CLOUDY    70  55  59 W3        29.85S
Milwaukee      CLOUDY    64  52  64 SE6       29.86S
$$






USA.gov is the U.S. government's official web portal to all federal, state and local government web resources and services.